Location: Pacheco
(37.9835°N, 122.0752°W)
Time: 22:03:18
(UTC+00:00)

Cosmos 1452 Rocket - Pass Details

Date: 13 April 2024
Orbit: 766 x 772 km, 74.1° (Epoch: 21 May)

Event Time Altitude Azimuth Distance (km) Brightness Sun altitude
Rises 13:02:42 0° 344° (NNW) 3,247 6.8 -6.9°
Reaches altitude 10° 13:05:06 10° 348° (NNW) 2,316 6.1 -6.5°
Maximum altitude 13:10:20 65° 70° (ENE) 844 4.1 -5.5°
Drops below altitude 10° 13:15:30 10° 152° (SSE) 2,297 6.1 -4.5°
Sets 13:17:53 0° 155° (SSE) 3,219 6.9 -4.1°
